LIZZIESAT

导读

LIZZIESAT是美国航天公司Sidus Space开发的模块化卫星,首星LizzieSat-1于2024年3月4日搭乘SpaceX Transporter-10任务,从加利福尼亚州范登堡空军基地发射升空。这颗卫星80%部件采用3D打印技术制造,依托连续纤维复合材料工艺,在减重降本的同时缩短了生产周期,主要提供基于地理空间人工智能的地球观测与遥感服务,为低轨数据获取提供灵活解决方案。

Basic Information
目录编号:
59132
目录名称:
LIZZIESAT
国际标识:
2024-043AL
轨道中心:
EARTH
卫星名称:
LIZZIESAT
卫星全名:
--
卫星状态:
在轨 (已飞行921 天)
发射日期:
2024-03-04 UTC
国别 :
美国 (US)
星等 :
--
This satellite is enrolled in the Space Conjunction Data Service (SCDS) and the current flight risk assessment level is: No High Risk
Orbit Information
数据来源 国际轨道数据
星历时间: 2026-09-11T11:53:51+0800
11小时前
查看轨道信息
半长轴: 6859.921km
偏心率: 0.0009337
轨道倾角: 97.576°
近地点辐角 307.737°
升交点赤经 31.262°
平近点角 52.302°
近地点: 475.378km
远地点: 488.19km
周期: 94.241分钟
每日圈数: 15.280029
Detailed Information
使用方式:
暂无
2D Orbit Map
3D Orbit Map
Orbit Altitude Analysis Chart
Orbit Inclination Analysis Chart
Orbit Comprehensive Analysis Chart
View Comprehensive Chart
Conjunction Data List
Event ID Objects TCA Miss Dist (km) Collision Risk Probability Collision Risk Index (CRI) Action
CDM_260912-033005-821505-913224
2026-09-12T
03:30:46+0000
1.090 km
极远距离
1.969617E-5 中风险 0.61
CDM_260913-025105-913206-470622
2026-09-13T
02:51:29+0000
1.324 km
极远距离
1.03534E-5 中风险 0.55
CDM_260913-034205-376305-913223
2026-09-13T
03:42:07+0000
1.460 km
极远距离
6.73768E-6 低风险 0.52
CDM_260913-053505-712205-913222
2026-09-13T
05:35:38+0000
1.644 km
极远距离
4.188959E-6 低风险 0.47
CDM_260906-054205-913206-387321
2026-09-06T
05:42:30+0000
1.695 km
极远距离
4.126815E-6 低风险 0.47
CDM_260912-060005-823205-913223
2026-09-12T
06:00:53+0000
1.751 km
极远距离
3.345563E-6 低风险 0.45
CDM_260912-002305-913206-657523
2026-09-12T
00:23:24+0000
1.613 km
极远距离
3.303434E-6 低风险 0.45
CDM_260906-014605-913206-387321
2026-09-06T
01:46:42+0000
2.794 km
极远距离
1.350382E-6 低风险 0.38
CDM_260913-084405-913206-356722
2026-09-13T
08:44:15+0000
2.728 km
极远距离
1.348315E-6 低风险 0.38
CDM_260912-214405-913206-784922
2026-09-12T
21:44:09+0000
2.743 km
极远距离
1.337837E-6 低风险 0.38
Miss Distance Evolution Trend with All Objects
Collision Probability Evolution Trend with All Objects